Mansfield Center, CT

4:41 AM EST on January 23, 2017 (GMT -0500)
Windham

Weather History for KIJD - April, 2013

Change the Weather History Date:

Wednesday, April 10, 2013

  Actual Average Record
Temperature  
Mean Temperature 57 °F -  
Max Temperature 66 °F 55 °F 82 °F (1991)
Min Temperature 48 °F 32 °F 20 °F (1977)
Degree Days  
Heating Degree Days 8    
Growing Degree Days 7 (Base 50)    
Moisture  
Dew Point 47 °F    
Average Humidity 79    
Maximum Humidity 93    
Minimum Humidity 52    
Precipitation  
Precipitation 0.52 in - - ()
Sea Level Pressure  
Sea Level Pressure 29.91 in    
Wind  
Wind Speed 5 mph (SSE)    
Max Wind Speed 15 mph    
Max Gust Speed 18 mph    
Visibility 8 miles    
Events Rain    
Averages and records for this station are not official NWS values.
T = Trace of Precipitation, MM = Missing Value Source: NWS Daily Summary

Daily Weather History Graph

Daily Weather History Graph

Search for Another Location

Airport or City:

Trip Planner

Search our weather history database for the weather conditions in past years. The results will help you decide how hot, cold, wet, or windy it might be!

Date:

Astronomy

Apr. 10, 2013 Rise Set
Actual Time 6:16 AM EDT 7:24 PM EDT
Civil Twilight 5:47 AM EDT 7:52 PM EDT
Nautical Twilight 5:13 AM EDT 8:27 PM EDT
Astronomical Twilight 4:38 AM EDT 9:02 PM EDT
Moon 6:10 AM EDT (4/10) 7:58 PM EDT (4/10)
Length of Visible Light 14h 05m
Length of Day
13h 07m
New Moon, 0% of the Moon is Illuminated
Apr 10
New Moon
Apr 18
First Quarter
Apr 25
Full
May 2
Last Quarter
May 9
New

Hourly Weather History & Observations

Time (EDT) Temp. Dew Point Humidity Pressure Visibility Wind Dir Wind Speed Gust Speed Precip Events Conditions
12:52 AM 55.0 °F 43.0 °F 64% 29.92 in 10.0 mi South 11.5 mph 17.3 mph N/A   Scattered Clouds
1:52 AM 52.0 °F 45.0 °F 77% 29.93 in 9.0 mi SE 5.8 mph - 0.00 in Rain Light Rain
2:52 AM 50.0 °F 43.0 °F 77% 29.91 in 10.0 mi Variable 4.6 mph - 0.00 in   Overcast
3:52 AM 50.0 °F 46.9 °F 89% 29.95 in 3.0 mi East 5.8 mph - 0.16 in Rain Rain
4:44 AM 48.2 °F 46.4 °F 93% 29.88 in 8.0 mi ENE 3.5 mph - 0.08 in   Mostly Cloudy
4:52 AM 48.9 °F 46.0 °F 90% 29.87 in 8.0 mi Calm Calm - 0.08 in   Mostly Cloudy
5:52 AM 48.0 °F 46.0 °F 93% 29.90 in 9.0 mi Calm Calm - N/A   Partly Cloudy
6:29 AM 48.2 °F 46.4 °F 93% 29.92 in 5.0 mi North 3.5 mph - N/A   Mostly Cloudy
6:52 AM 48.9 °F 46.9 °F 93% 29.93 in 6.0 mi Calm Calm - N/A   Overcast
7:52 AM 48.9 °F 46.9 °F 93% 29.95 in 6.0 mi North 5.8 mph - N/A   Overcast
8:52 AM 50.0 °F 46.0 °F 86% 29.94 in 8.0 mi NE 4.6 mph - N/A   Overcast
9:52 AM 50.0 °F 46.0 °F 86% 29.96 in 7.0 mi North 3.5 mph - N/A   Overcast
10:52 AM 52.0 °F 46.9 °F 83% 29.96 in 8.0 mi West 3.5 mph - N/A   Overcast
11:52 AM 55.0 °F 48.0 °F 77% 29.97 in 8.0 mi Calm Calm - N/A   Overcast
12:17 PM 57.2 °F 48.2 °F 72% 29.96 in 9.0 mi Variable 4.6 mph - N/A   Scattered Clouds
12:52 PM 61.0 °F 48.0 °F 62% 29.96 in 10.0 mi Calm Calm - N/A   Overcast
1:52 PM 64.0 °F 48.0 °F 56% 29.94 in 10.0 mi Calm Calm - N/A   Overcast
2:52 PM 64.9 °F 48.0 °F 54% 29.92 in 10.0 mi Variable 3.5 mph - N/A   Overcast
3:52 PM 66.0 °F 48.0 °F 52% 29.88 in 10.0 mi Calm Calm - N/A   Overcast
4:52 PM 66.0 °F 48.0 °F 52% 29.86 in 10.0 mi South 8.1 mph - N/A   Overcast
5:52 PM 66.0 °F 48.0 °F 52% 29.87 in 10.0 mi South 15.0 mph 18.4 mph N/A   Overcast
6:52 PM 57.9 °F 46.9 °F 67% 29.88 in 10.0 mi South 9.2 mph - N/A   Overcast
7:52 PM 55.0 °F 45.0 °F 69% 29.87 in 10.0 mi SSW 8.1 mph - N/A   Mostly Cloudy
8:18 PM 51.8 °F 48.2 °F 88% 29.94 in 2.0 mi Variable 4.6 mph 17.3 mph 0.15 in Rain Heavy Rain
8:30 PM 51.8 °F 48.2 °F 88% 29.93 in 3.0 mi South 6.9 mph - 0.20 in Rain Rain
8:52 PM 50.0 °F 48.0 °F 93% 29.92 in 8.0 mi SE 5.8 mph - 0.21 in Rain Light Rain
9:52 PM 50.0 °F 46.9 °F 89% 29.86 in 9.0 mi SSE 3.5 mph - 0.00 in   Partly Cloudy
10:35 PM 48.2 °F 46.4 °F 93% 29.87 in 6.0 mi South 3.5 mph - 0.01 in Rain Light Rain
10:52 PM 48.9 °F 46.9 °F 93% 29.87 in 6.0 mi South 6.9 mph - 0.02 in Rain Light Rain
11:52 PM 48.9 °F 46.9 °F 93% 29.87 in 8.0 mi Calm Calm - 0.05 in Rain Light Rain